Change the Weather History Date:

Monday, August 5, 2013

  Actual Average Record
Temperature  
Mean Temperature 74 °F -  
Max Temperature 86 °F 85 °F 104 °F (2007)
Min Temperature 63 °F 68 °F 59 °F (2014)
Cooling Degree Days 10    
Growing Degree Days 24 (Base 50)    
Moisture  
Dew Point 63 °F    
Average Humidity 71    
Maximum Humidity 93    
Minimum Humidity 38    
Precipitation  
Precipitation 0.00 in - - ()
Sea Level Pressure  
Sea Level Pressure 30.07 in    
Wind  
Wind Speed 1 mph (ENE)    
Max Wind Speed 8 mph    
Max Gust Speed -    
Visibility 10 miles    
Events      
Averages and records for this station are not official NWS values.
T = Trace of Precipitation, MM = Missing Value Source: NWS Daily Summary

Daily Weather History Graph

Daily Weather History Graph

Search for Another Location

Airport or City:

Trip Planner

Search our weather history database for the weather conditions in past years. The results will help you decide how hot, cold, wet, or windy it might be!

Date:

Astronomy

Aug. 05, 2013 Rise Set
Actual Time 5:56 AM CDT 7:46 PM CDT
Civil Twilight 5:28 AM CDT 8:14 PM CDT
Nautical Twilight 4:54 AM CDT 8:48 PM CDT
Astronomical Twilight 4:18 AM CDT 9:24 PM CDT
Moon 4:51 AM CDT (8/5) 6:48 PM CDT (8/5)
Length of Visible Light 14h 45m
Length of Day
13h 50m
Waning Crescent, 1% of the Moon is Illuminated
Aug 5
Waning Crescent
Aug 6
New
Aug 14
First Quarter
Aug 20
Full
Aug 28
Last Quarter

Hourly Weather History & Observations

Time (CDT) Temp. Heat Index Dew Point Humidity Pressure Visibility Wind Dir Wind Speed Gust Speed Precip Events Conditions
12:56 AM 68.0 °F - 61.9 °F 81% 30.12 in 10.0 mi Calm Calm - N/A   Clear
1:56 AM 64.9 °F - 61.9 °F 90% 30.11 in 10.0 mi Calm Calm - N/A   Clear
2:56 AM 63.9 °F - 61.0 °F 90% 30.09 in 10.0 mi Calm Calm - N/A   Clear
3:56 AM 64.9 °F - 61.9 °F 90% 30.09 in 10.0 mi Calm Calm - N/A   Clear
4:56 AM 63.9 °F - 61.0 °F 90% 30.09 in 10.0 mi Calm Calm - N/A   Clear
5:56 AM 63.9 °F - 61.9 °F 93% 30.10 in 10.0 mi Calm Calm - N/A   Scattered Clouds
6:56 AM 66.9 °F - 63.0 °F 87% 30.12 in 10.0 mi Calm Calm - N/A   Partly Cloudy
7:56 AM 70.0 °F - 61.0 °F 73% 30.12 in 10.0 mi ENE 4.6 mph - N/A   Clear
8:56 AM 72.9 °F - 63.0 °F 71% 30.12 in 10.0 mi Calm Calm - N/A   Partly Cloudy
9:56 AM 73.9 °F - 61.9 °F 66% 30.11 in 10.0 mi SSE 3.5 mph - N/A   Clear
10:56 AM 79.0 °F - 63.0 °F 58% 30.10 in 10.0 mi Calm Calm - N/A   Partly Cloudy
11:56 AM 81.9 °F 82.8 °F 61.9 °F 51% 30.09 in 10.0 mi Variable 3.5 mph - N/A   Partly Cloudy
12:56 PM 82.9 °F 83.3 °F 61.0 °F 47% 30.08 in 10.0 mi Variable 4.6 mph - N/A   Clear
1:56 PM 86.0 °F 85.0 °F 57.9 °F 38% 30.06 in 10.0 mi NE 8.1 mph - N/A   Scattered Clouds
2:56 PM 82.9 °F 83.7 °F 61.9 °F 49% 30.06 in 10.0 mi North 5.8 mph - N/A   Scattered Clouds
3:56 PM 81.9 °F 82.8 °F 61.9 °F 51% 30.05 in 10.0 mi Calm Calm - N/A   Mostly Cloudy
4:56 PM 81.9 °F 83.2 °F 63.9 °F 54% 30.04 in 10.0 mi Calm Calm - N/A   Clear
5:56 PM 79.9 °F - 64.9 °F 60% 30.00 in 10.0 mi ENE 8.1 mph - N/A   Partly Cloudy
6:56 PM 79.0 °F - 64.9 °F 62% 30.01 in 10.0 mi Calm Calm - N/A   Partly Cloudy
7:56 PM 75.9 °F - 66.9 °F 74% 29.99 in 10.0 mi Calm Calm - N/A   Partly Cloudy
8:56 PM 75.9 °F - 66.9 °F 74% 30.01 in 10.0 mi Calm Calm - N/A   Scattered Clouds
9:56 PM 72.0 °F - 66.9 °F 84% 30.01 in 10.0 mi Calm Calm - N/A   Partly Cloudy
10:56 PM 70.9 °F - 68.0 °F 91% 30.01 in 10.0 mi Calm Calm - N/A   Scattered Clouds
11:56 PM 72.0 °F - 68.9 °F 90% 30.00 in 10.0 mi SSE 3.5 mph - N/A   Overcast